Wind_Speed
17 18 18 18 17 16 16 17 19 20 21 22 22 23 23 23 20 15 15 17 17 16 16 15 12 11 11 12 13 12 13 15 13 12 13 13 14 14 15 15 16 17 17 16 15 14 15 16 17 17 16 15 14 13 12 11 11 11 12 13 14 15 16 16 17 19 20 21 22 23 24 25 27 28 30 31 33 35 36 37 39 41 42 44 46 48
17 19 18 17 17 17 18 19 20 21 21 21 20 21 21 20 19 16 15 16 16 15 13 12 11 8 7 8 8 8 10 10 8 9 11 13 14 14 14 15 15 15 15 14 13 12 12 13 14 13 12 11 10 9 9 9 10 11 12 13 14 16 17 18 19 20 22 23 25 26 27 29 30 31 33 34 35 37 38 39 41 43 45 47 49 50
18 19 16 16 17 17 17 17 18 19 20 20 20 21 20 18 16 14 11 10 12 12 11 12 10 6 4 5 5 7 8 8 9 11 13 13 14 14 14 14 14 14 13 13 12 11 12 12 12 11 11 11 10 9 9 10 11 12 13 14 15 17 18 19 21 22 24 25 27 29 30 32 33 35 36 38 40 41 42 44 45 48 50 51 53 54
18 16 14 14 16 16 17 18 18 19 20 20 19 19 18 16 13 11 8 8 10 10 11 12 9 5 5 6 7 8 9 11 12 13 14 14 14 14 14 14 13 13 13 13 12 12 12 12 12 11 11 11 10 10 11 12 13 15 15 17 18 20 21 23 24 26 27 29 31 33 34 36 38 40 41 43 45 46 48 50 51 53 55 56 58 59
17 17 17 18 18 19 19 18 17 17 17 17 17 17 17 15 13 11 10 10 10 11 14 13 7 5 7 8 10 11 11 12 13 14 14 14 14 14 14 14 13 14 14 13 13 13 12 12 11 11 11 11 12 13 14 15 16 18 19 21 23 24 26 28 29 31 33 35 36 38 40 41 43 45 47 49 51 52 54 55 56 57 59 60 61 61
17 17 18 17 16 16 15 15 15 16 17 17 15 15 14 11 10 9 9 9 9 11 16 14 6 4 9 11 11 13 14 14 14 14 15 14 14 14 13 14 14 14 15 14 14 13 12 11 11 11 11 13 14 16 17 19 20 22 24 26 28 30 32 33 35 37 39 41 42 44 45 47 49 51 53 54 55 56 57 58 59 59 59 59 58 58
15 14 14 14 14 14 15 16 16 16 16 16 14 13 11 9 8 9 10 10 9 10 12 14 11 5 11 15 14 16 16 16 16 15 16 15 14 14 14 15 15 15 15 15 14 13 12 12 12 12 14 15 17 19 21 23 25 28 30 32 34 35 37 39 41 43 44 46 48 49 51 52 53 55 56 57 57 58 58 59 58 58 56 55 55 55
13 14 14 15 15 15 16 16 15 14 14 13 12 10 10 10 11 12 12 12 13 13 11 14 16 9 11 18 17 18 18 17 17 17 16 16 15 15 16 16 16 16 15 15 14 13 13 13 14 15 17 19 22 24 26 28 31 33 35 37 38 40 42 44 45 47 49 50 51 52 53 53 54 55 56 56 56 56 56 56 55 55 55 54 54 54
14 14 14 16 16 17 17 15 14 12 11 11 10 9 11 13 13 14 15 16 16 15 13 16 20 9 7 19 20 18 19 17 17 17 17 17 17 16 17 16 16 16 15 15 15 15 15 15 17 18 21 23 26 29 31 33 35 37 39 41 43 44 46 47 49 50 51 51 51 51 52 52 52 52 53 54 54 54 54 54 54 55 55 55 55 55
12 13 15 16 16 15 14 11 10 9 9 10 10 11 12 14 15 17 18 17 13 10 11 16 23 12 3 19 25 18 19 19 18 18 17 18 18 17 17 16 16 16 15 16 16 17 17 19 20 22 25 28 31 33 36 38 39 41 43 44 46 48 49 50 50 50 50 49 49 49 50 50 50 51 51 52 52 53 54 55 55 56 56 56 56 57
12 15 15 14 12 10 8 7 7 8 10 11 11 11 13 16 18 17 14 10 5 5 7 10 22 17 4 16 26 19 18 20 20 20 19 19 18 18 17 16 16 16 16 17 18 19 20 22 24 26 29 32 35 37 39 41 43 45 47 48 49 50 50 50 49 48 47 47 47 47 48 49 50 51 53 53 54 55 56 57 57 58 58 58 58 59
14 14 12 10 8 7 6 7 8 11 12 10 10 13 15 14 11 8 5 3 3 3 3 6 17 16 5 12 24 21 19 20 21 21 20 19 19 18 17 17 16 17 17 19 20 21 23 25 27 30 34 37 39 41 43 45 47 49 50 50 49 49 48 47 46 46 46 47 47 48 48 50 51 53 54 56 57 58 59 60 60 61 61 61 61 61
12 10 10 8 7 8 8 10 12 12 10 9 12 14 11 6 3 3 2 3 4 3 1 6 11 9 3 11 23 23 21 21 22 23 21 19 19 19 18 17 17 18 20 22 23 25 27 29 32 36 39 41 43 45 47 49 50 51 50 49 48 47 47 47 47 48 48 49 49 50 51 52 53 54 56 57 58 59 60 61 62 63 63 63 63 63
11 9 9 8 8 10 12 14 13 10 9 13 15 11 4 1 3 3 3 2 4 3 4 5 5 5 3 9 19 23 22 23 23 23 21 19 18 19 19 19 19 20 22 24 26 29 31 34 38 41 43 46 47 49 51 51 52 52 50 49 49 49 49 49 50 50 50 50 51 51 52 54 55 56 57 58 59 60 61 62 63 63 64 64 64 64
10 6 7 10 11 14 16 14 11 11 14 15 11 6 4 3 2 3 3 2 3 2 4 5 3 4 6 9 16 21 22 23 23 22 21 19 18 19 20 21 21 23 25 27 29 32 36 39 42 45 47 49 51 52 53 53 53 53 52 52 52 52 52 52 52 52 52 52 52 53 54 56 57 58 59 60 61 61 62 63 63 63 64 64 64 64
8 6 10 14 15 16 14 10 9 13 13 9 7 6 7 7 5 5 5 5 5 4 3 5 2 4 9 11 15 19 20 21 20 21 21 20 19 19 21 22 24 25 28 31 33 37 40 43 46 48 50 52 53 53 54 54 55 55 55 55 55 54 54 54 53 53 53 53 54 55 56 57 58 60 60 61 61 62 62 63 63 64 64 64 64 64
7 10 14 15 15 13 9 8 12 15 11 8 9 9 8 8 8 8 7 5 3 2 3 5 4 5 9 10 15 19 19 20 20 19 20 20 19 19 21 24 26 29 32 35 38 41 45 47 49 50 52 53 54 55 55 56 57 57 57 56 56 55 54 53 53 53 54 54 55 56 57 58 59 60 61 62 62 63 63 64 64 64 64 64 65 64
11 16 16 14 12 9 8 11 15 14 12 11 10 8 9 8 7 6 4 3 2 1 3 4 5 9 10 8 14 21 21 19 19 19 19 20 20 21 23 26 29 33 36 40 43 46 49 50 51 53 53 55 55 56 57 57 57 56 56 55 54 54 53 53 53 54 54 55 56 57 58 59 61 62 63 63 64 65 65 65 65 65 65 65 65 65
14 16 16 14 10 7 10 14 14 13 12 12 10 9 9 6 4 4 2 2 2 1 3 2 4 8 13 11 12 19 23 22 21 20 20 22 23 24 26 30 34 37 41 44 47 50 51 52 54 54 55 55 56 56 56 56 55 55 55 54 53 53 53 54 54 55 56 57 58 59 60 61 62 63 64 64 65 66 66 66 66 66 66 65 65 65
14 11 11 13 10 10 14 15 14 15 12 9 7 6 6 3 4 6 5 4 2 2 3 2 1 4 12 16 13 15 21 23 23 22 23 24 25 27 30 33 37 41 45 47 49 51 53 54 54 55 55 55 55 56 55 55 55 54 54 54 53 53 54 54 55 56 57 58 59 61 62 63 64 64 65 65 66 66 66 66 66 66 66 66 66 66
13 8 11 16 15 15 16 15 15 14 9 6 4 5 7 7 7 9 9 8 5 2 1 1 2 2 9 15 16 16 18 21 23 23 24 25 27 30 33 37 41 45 47 49 50 52 53 53 54 54 55 55 55 55 55 54 54 54 54 54 54 54 55 55 56 57 58 59 61 62 63 64 65 65 66 66 66 66 66 66 66 66 66 66 65 65
11 9 15 20 19 17 17 17 13 8 5 5 6 9 11 12 11 7 5 5 4 3 2 2 3 5 7 10 14 16 18 19 21 21 22 25 29 33 38 42 44 46 47 49 51 52 53 53 54 54 55 55 54 54 54 54 54 55 55 55 55 55 56 57 58 59 60 61 62 63 64 65 66 66 66 66 66 66 66 66 66 66 66 65 65 65
11 12 15 18 17 15 15 13 8 4 4 6 9 13 15 14 11 4 3 5 7 7 7 4 3 6 8 9 9 11 14 16 18 21 24 28 33 38 41 43 44 45 47 49 51 52 52 53 53 53 53 54 54 54 54 54 55 55 55 56 56 56 57 58 59 60 61 63 64 65 65 66 66 67 67 67 67 67 66 66 66 66 66 65 65 65
13 12 14 17 16 12 9 6 4 3 6 10 14 18 17 13 10 7 7 10 10 8 7 3 2 4 5 7 9 11 14 17 21 24 27 32 36 39 41 41 43 46 48 49 50 50 51 51 52 53 53 54 55 55 55 55 55 56 56 57 57 58 59 60 61 62 64 65 66 66 67 67 67 67 67 67 67 67 66 66 66 66 66 65 65 65
13 10 12 14 11 8 5 3 4 8 12 17 19 19 17 13 11 8 8 9 7 5 4 1 2 4 7 11 14 17 20 23 25 28 31 35 38 39 40 43 46 47 48 49 49 50 50 51 52 54 55 55 56 56 56 57 57 57 58 59 59 60 61 63 64 65 66 67 67 68 68 68 67 67 67 67 67 66 66 66 66 66 65 65 65 64
12 11 11 8 3 4 5 6 10 16 19 19 17 16 15 13 11 9 9 8 4 4 6 5 6 10 13 16 20 24 27 28 30 32 34 34 37 40 43 46 47 47 48 49 50 50 51 53 54 55 55 56 56 57 57 58 58 58 59 60 61 62 63 64 65 66 67 67 68 68 67 67 67 67 66 66 66 66 66 66 65 65 65 64 64 64
12 12 11 7 5 8 11 13 14 15 15 15 15 15 14 13 12 11 10 7 5 8 11 9 11 15 17 21 26 29 31 32 34 35 34 35 40 43 45 46 47 48 49 50 51 52 53 54 55 55 56 56 56 57 57 58 58 59 60 61 63 64 65 66 66 67 67 67 67 67 67 66 66 66 65 65 65 65 65 65 65 65 64 64 63 63
14 13 10 10 12 13 14 14 12 11 13 14 14 14 14 13 13 11 8 6 6 8 9 10 13 18 22 27 31 32 34 35 35 34 36 41 45 47 47 47 48 49 50 51 52 53 54 55 55 56 56 56 56 57 58 59 60 61 62 63 64 65 66 67 67 66 66 66 66 66 66 65 65 65 65 65 65 65 65 64 64 64 63 62 62 62
14 12 12 13 14 13 12 11 11 12 15 15 14 14 14 13 13 12 9 7 7 8 10 14 19 23 28 32 33 35 35 34 34 37 41 44 46 47 47 48 49 50 51 52 53 53 54 55 55 56 56 56 57 58 59 60 61 62 63 64 65 66 67 66 66 66 65 65 65 65 64 64 64 64 64 64 64 64 63 63 62 62 61 60 60 59
14 13 13 14 14 13 12 10 12 15 16 15 15 14 14 14 13 12 10 9 10 12 15 20 24 27 31 33 34 34 33 33 36 40 43 45 46 47 48 49 50 51 51 52 53 54 54 54 55 55 56 57 58 59 60 62 63 64 64 65 66 66 66 66 65 65 64 64 63 63 63 63 63 63 63 62 62 62 61 61 60 59 58 58 58 57
15 14 12 13 13 12 10 11 14 16 16 16 15 13 13 14 14 12 12 13 15 17 21 25 29 31 32 33 32 31 32 36 41 44 45 46 47 48 49 50 50 51 51 52 53 53 54 54 55 56 57 58 60 61 62 63 64 65 65 65 65 65 64 64 63 63 62 62 62 61 61 62 62 61 61 61 61 60 59 58 58 58 57 57 56 56
16 14 12 13 13 11 11 13 15 17 18 16 14 13 14 15 14 14 15 17 20 24 27 30 32 34 33 32 31 32 37 42 46 46 47 48 48 49 49 50 50 51 52 53 53 54 55 56 57 58 59 60 61 62 63 64 64 65 65 64 64 64 63 62 62 61 61 60 60 61 61 61 61 60 59 59 59 58 58 57 57 57 56 56 55 55
16 15 14 15 14 13 13 14 17 18 15 11 10 12 15 15 17 18 18 19 23 27 31 33 34 34 32 31 34 39 44 46 47 47 48 48 49 49 49 50 51 52 53 54 55 56 57 57 58 59 59 60 61 62 63 63 64 64 64 63 63 62 61 61 60 60 60 60 60 60 60 60 59 59 58 58 57 57 57 57 57 56 55 55 54 54
16 15 15 16 16 14 13 16 18 13 5 6 11 14 15 16 19 22 23 25 28 31 33 35 33 30 29 33 40 45 46 46 47 47 48 48 49 49 49 51 52 53 54 55 56 56 57 57 58 58 59 60 60 61 62 62 63 62 62 61 61 60 59 59 59 59 58 58 58 58 58 58 58 57 56 56 56 56 56 56 55 54 54 53 53 53
16 16 17 18 17 14 14 16 12 4 4 11 15 14 14 16 19 24 28 30 33 37 37 33 29 28 33 39 43 45 45 46 46 47 47 48 49 50 51 52 53 54 55 55 56 57 57 57 58 58 59 59 60 61 61 61 61 61 60 59 59 58 57 57 57 57 57 57 56 56 57 57 56 56 56 56 56 56 55 54 53 52 52 52 52 52
19 18 18 20 17 14 14 13 7 7 12 15 12 11 14 17 21 27 33 37 39 39 34 29 29 34 40 43 44 44 45 45 46 47 48 49 50 51 52 53 54 55 55 56 56 57 57 57 58 58 59 59 59 60 60 60 60 59 58 57 56 56 55 55 55 55 55 55 55 55 56 56 56 56 56 56 55 55 54 53 52 51 51 51 51 51
19 19 20 19 16 14 15 15 12 11 11 9 9 12 16 19 23 30 38 43 41 34 30 31 37 42 44 44 45 46 46 46 47 48 48 50 51 52 52 53 54 54 54 55 55 56 56 57 57 57 57 58 58 59 59 59 58 58 56 55 54 54 54 54 54 54 54 54 54 54 54 55 56 56 56 55 55 54 53 52 51 51 51 51 51 50
20 19 19 18 16 15 14 13 10 7 5 7 11 15 18 21 25 32 40 41 34 28 31 39 43 44 45 45 46 46 47 47 47 48 50 51 52 52 52 52 53 53 53 54 55 55 56 56 56 56 56 57 57 57 57 57 56 56 55 54 53 53 53 53 53 53 54 54 54 54 54 54 55 56 55 54 53 53 52 51 50 51 51 51 50 48
18 18 18 20 20 19 15 9 5 3 6 11 15 17 20 25 31 35 35 31 29 32 40 44 44 44 46 46 46 47 48 49 49 49 50 51 52 52 53 53 53 53 53 54 54 55 55 55 55 55 55 55 56 56 56 56 55 54 53 53 52 52 52 53 53 53 54 53 53 53 53 54 55 54 53 53 52 51 50 50 50 50 50 49 48 46
21 21 22 24 24 22 18 12 7 7 9 13 16 20 25 31 35 28 19 22 34 42 43 44 43 44 45 45 46 47 47 49 51 50 50 51 52 52 52 52 52 52 53 53 54 55 55 55 54 54 54 54 55 55 54 54 53 53 52 52 52 52 53 53 54 53 53 53 52 52 53 54 53 52 52 51 51 49 49 49 49 49 48 47 45 43
24 24 24 25 25 23 18 16 14 11 10 14 21 28 32 33 31 22 19 31 42 43 41 43 43 43 44 44 45 46 46 48 50 50 50 51 50 50 50 50 50 51 52 53 53 54 54 53 53 53 53 53 53 52 52 52 52 52 51 51 52 52 53 53 53 53 52 52 51 52 52 52 51 51 51 50 49 48 47 48 48 47 47 46 43 40
24 24 23 24 25 22 20 20 17 12 14 22 29 33 33 31 30 29 33 39 41 40 41 42 41 42 43 44 45 46 46 47 48 49 49 49 49 49 49 49 50 50 51 52 52 53 53 53 52 52 51 51 51 50 50 51 51 50 50 50 51 52 52 52 52 52 51 51 51 51 51 50 49 49 49 48 47 47 46 46 46 45 44 43 41 38
22 22 20 22 23 21 18 16 12 12 22 32 34 33 33 32 33 35 37 38 38 40 41 40 40 42 43 43 44 45 46 47 48 48 48 48 48 48 49 49 50 50 51 51 52 52 52 52 51 50 50 49 49 49 49 50 50 50 50 50 51 51 50 50 50 50 50 50 50 51 50 48 47 48 48 46 45 45 45 45 45 43 42 41 39 37
21 19 18 20 20 17 15 14 14 20 29 33 33 34 34 34 34 36 38 39 40 40 40 41 42 42 42 44 45 45 46 47 48 48 48 48 48 48 49 49 50 50 51 51 51 51 51 51 50 49 48 48 48 48 48 49 50 50 50 50 50 50 49 49 49 49 49 49 50 49 48 46 46 47 46 44 44 44 44 45 44 42 41 39 37 36
21 20 20 21 20 18 20 22 24 28 31 32 33 34 34 34 35 36 37 39 39 40 40 41 41 42 43 45 45 46 47 47 47 48 48 48 48 48 49 49 50 50 51 51 50 50 50 50 49 48 47 47 47 47 48 49 51 51 50 49 49 49 49 49 49 48 48 48 49 48 47 45 45 45 44 42 42 42 44 45 44 42 40 38 36 34
21 22 23 24 24 24 25 25 26 29 31 33 34 34 34 35 36 36 37 39 39 40 40 41 42 43 44 44 45 46 47 47 47 48 47 47 48 48 49 50 50 51 51 50 50 50 49 49 48 47 47 46 46 47 48 49 50 50 49 48 48 48 49 49 48 48 47 47 48 47 45 44 44 44 43 40 40 41 42 44 44 42 40 38 34 32
23 23 25 26 27 27 27 27 29 31 33 33 34 35 36 37 37 37 39 39 39 39 40 40 42 43 43 44 46 46 46 47 47 47 47 47 48 49 50 50 50 50 50 50 50 49 49 48 48 47 46 46 46 48 48 48 48 47 47 47 47 47 48 48 47 47 47 47 47 46 44 43 43 43 42 40 39 39 40 42 42 40 39 37 35 33
24 25 26 27 28 28 29 30 32 33 33 34 35 37 37 37 37 38 38 38 39 39 39 40 41 42 43 44 45 45 46 46 46 46 46 47 48 49 50 50 50 50 50 49 49 48 48 47 46 46 46 46 46 47 47 47 47 46 45 46 46 47 47 46 46 46 46 46 47 46 43 42 42 42 41 40 39 39 40 41 40 39 38 37 36 34
26 26 28 29 30 30 31 33 36 36 36 36 38 38 37 37 38 38 38 38 38 38 38 39 40 40 42 43 44 45 45 44 45 45 45 46 48 49 50 50 50 50 50 49 48 47 46 46 45 45 45 45 46 46 45 45 45 44 44 45 46 46 46 45 44 44 45 45 46 45 42 41 40 41 41 40 38 38 40 41 41 39 37 35 34 32
27 28 29 31 32 33 33 35 38 39 38 38 39 39 39 38 38 38 38 38 39 39 39 39 39 40 41 43 44 45 44 44 44 45 45 46 48 49 50 50 50 49 49 48 47 45 45 44 44 44 44 44 44 44 44 44 44 44 44 45 46 46 46 45 44 44 44 45 45 44 42 40 39 40 40 40 39 37 37 38 39 37 36 34 32 29
28 29 31 32 33 33 34 35 36 38 39 39 39 40 39 39 39 39 39 39 39 40 40 40 40 41 42 43 44 44 44 44 45 45 46 46 47 48 49 49 48 48 47 46 46 45 43 43 43 43 43 43 43 43 44 44 44 43 43 44 45 45 45 45 44 44 44 45 45 44 42 40 39 39 39 40 39 38 37 37 36 34 32 30 30 28
Wind_Direction
280 278 278 283 289 288 282 275 273 272 273 274 277 279 280 282 285 287 285 286 287 284 279 275 265 255 256 263 274 281 286 291 289 280 271 260 253 246 236 227 221 222 221 220 223 229 237 244 251 257 262 266 266 259 255 252 250 249 251 254 256 259 262 263 266 268 269 271 271 273 274 275 277 278 279 280 282 283 284 286 287 288 289 290 290 291
279 278 283 289 285 280 275 274 274 273 273 274 276 279 280 282 287 290 285 283 282 273 261 257 252 246 253 261 270 272 277 280 264 250 246 238 236 228 219 216 217 219 216 216 221 228 237 247 251 254 255 253 249 245 247 245 244 247 248 251 254 257 260 262 265 267 269 271 272 274 275 276 279 280 281 282 283 284 285 286 287 288 289 290 291 291
281 283 288 287 282 280 278 275 274 273 274 275 278 279 280 283 290 293 286 275 270 259 242 242 244 235 231 237 238 242 246 241 227 227 226 224 224 217 211 211 213 214 211 212 219 224 232 240 242 241 241 240 236 235 238 241 243 246 248 250 254 258 261 265 267 270 272 274 277 278 280 282 283 284 285 285 286 286 287 287 288 289 289 290 290 291
283 287 287 281 281 282 279 278 277 277 277 277 278 279 283 287 287 283 271 257 252 248 245 244 235 192 170 191 202 211 220 219 218 220 217 214 216 214 211 210 211 210 209 212 217 221 226 231 234 234 237 241 245 248 250 253 254 255 258 260 263 267 270 272 275 277 280 282 284 285 287 288 289 289 289 290 290 291 291 291 291 291 291 291 291 292
284 285 283 281 282 281 281 281 281 281 279 279 280 282 286 286 281 272 256 250 244 243 252 250 224 161 164 185 194 194 203 211 212 214 214 212 212 214 213 212 211 210 210 213 216 219 223 229 236 241 250 259 263 268 269 270 271 271 273 275 278 281 283 284 285 287 288 288 289 290 291 292 293 293 293 293 292 292 292 292 293 293 293 294 294 294
287 285 285 285 284 282 283 284 285 286 286 285 284 285 287 282 275 265 250 250 243 241 250 245 224 158 175 189 190 188 196 203 203 210 214 210 209 212 213 214 213 213 214 216 218 223 230 238 249 258 268 276 280 283 284 284 286 288 290 291 293 294 295 296 296 295 296 295 295 295 294 294 294 294 294 294 295 295 295 295 295 295 296 296 297 297
292 290 289 287 284 284 285 288 289 287 286 288 288 286 286 278 270 269 263 261 251 247 252 236 224 195 178 186 187 190 201 204 201 209 214 212 212 213 215 218 218 217 219 223 227 232 242 251 262 273 280 288 292 295 296 298 301 302 303 302 301 302 302 302 301 301 301 300 300 300 300 299 299 298 298 299 300 300 300 299 299 299 299 299 299 299
298 294 291 289 288 287 287 289 287 285 286 287 288 283 280 281 284 283 276 272 267 265 264 234 219 210 189 191 190 194 204 207 206 210 216 219 220 220 221 223 224 226 229 233 239 245 254 264 273 283 291 297 301 303 305 306 306 306 306 306 305 305 305 305 304 304 304 304 304 304 303 303 304 304 304 304 303 303 302 302 302 301 301 301 301 300
299 294 293 293 292 291 288 287 283 283 286 285 287 285 284 289 290 287 282 279 276 266 258 229 213 212 195 190 188 195 205 210 212 215 221 225 227 228 228 231 233 237 242 246 253 260 269 278 286 293 299 303 306 307 307 306 306 306 307 308 308 307 308 307 307 308 307 307 307 307 307 307 307 307 306 305 304 304 304 303 303 302 302 301 301 300
301 299 301 300 297 295 290 287 281 281 289 289 291 289 289 295 291 290 286 278 272 254 251 233 212 207 182 185 186 194 209 215 218 221 227 231 233 235 236 241 244 249 256 261 268 275 282 289 295 300 304 307 309 309 309 308 308 309 310 310 311 310 310 310 310 310 310 310 310 309 309 308 307 306 305 305 305 305 304 303 302 302 301 300 299 298
305 304 305 303 301 301 297 291 283 289 301 297 293 295 300 303 295 290 283 267 256 238 249 232 207 204 209 191 190 196 215 225 229 229 233 235 238 241 243 248 254 259 267 272 279 285 291 296 301 305 308 309 310 310 311 310 309 310 311 312 313 312 312 312 312 311 311 311 310 309 308 307 306 306 306 306 305 305 304 303 302 301 300 299 298 297
310 308 307 305 304 304 300 299 301 306 310 298 295 306 307 306 296 281 266 209 200 247 255 202 196 202 218 191 192 203 223 231 235 236 237 238 240 244 248 253 260 268 275 279 284 288 293 299 302 305 307 308 309 310 311 310 310 311 312 314 314 313 313 312 312 311 311 311 310 310 310 309 308 308 307 307 306 305 304 303 302 301 300 299 298 297
320 317 309 305 306 306 301 309 316 314 310 300 302 310 308 313 328 288 249 194 224 255 210 175 189 206 220 188 194 209 226 231 233 234 235 238 243 248 254 261 268 275 281 285 288 292 296 301 304 306 307 308 310 311 312 313 313 313 314 315 315 314 314 313 313 313 313 312 312 311 310 310 309 308 307 306 306 305 304 303 302 301 301 299 298 297
336 327 314 310 310 311 312 317 322 317 313 310 306 304 288 31 15 297 268 283 275 244 168 171 190 212 207 192 199 210 222 226 227 230 233 238 246 254 261 268 276 281 286 291 294 297 301 304 307 308 310 311 313 314 314 314 314 314 315 316 315 315 315 314 314 313 312 312 311 310 309 309 308 307 307 306 305 305 304 303 302 301 300 299 298 297
335 318 318 323 315 313 315 317 319 319 319 315 305 285 261 271 277 250 245 250 267 256 204 203 215 209 195 196 203 208 217 221 224 229 234 241 249 259 268 274 282 287 290 295 299 302 305 307 309 310 312 313 314 314 314 314 315 316 316 316 315 315 314 314 313 312 311 311 310 310 309 309 308 307 307 306 305 304 303 302 301 300 299 298 297 296
322 306 321 322 314 313 313 310 318 324 325 319 305 287 282 282 263 257 274 263 261 309 264 210 196 201 199 203 205 208 216 220 225 233 237 244 253 262 273 279 286 293 296 299 302 304 307 309 311 312 313 314 314 315 316 316 316 316 316 315 315 315 314 313 312 311 310 310 309 309 309 308 307 307 306 305 304 303 302 301 300 299 299 298 297 296
310 311 322 320 314 313 306 306 321 326 321 308 305 297 286 286 280 276 288 288 279 316 259 196 151 162 186 209 214 211 218 222 227 237 242 249 258 265 276 283 290 296 299 303 305 307 309 311 312 313 314 316 316 316 317 316 316 316 315 315 314 314 313 311 310 309 309 308 308 308 307 307 306 306 305 305 304 303 302 301 300 299 298 297 296 295
311 313 322 324 318 311 302 311 321 322 317 308 304 302 297 290 286 280 288 330 10 290 247 205 176 181 187 213 222 215 220 225 230 240 249 256 265 273 280 288 294 299 303 306 308 309 311 312 314 316 317 317 317 317 317 316 316 315 314 314 313 312 310 309 308 308 308 308 307 307 307 307 307 306 306 305 305 303 302 301 300 299 298 297 296 295
318 314 319 324 319 308 310 315 317 317 315 309 299 303 311 296 289 300 296 320 336 290 286 225 199 210 212 223 229 220 221 227 233 243 254 263 270 278 286 293 298 302 306 308 310 311 312 314 316 317 317 317 316 316 316 316 315 314 313 312 311 310 309 308 308 308 308 308 308 308 308 308 307 307 306 305 305 304 303 302 301 300 299 298 297 296
319 307 306 316 314 311 314 314 317 318 315 311 302 315 334 323 308 310 291 280 272 275 304 286 250 219 216 225 236 232 228 231 238 247 258 268 276 283 290 296 301 305 308 310 312 313 314 316 316 316 316 316 316 316 316 315 314 313 312 310 309 308 308 307 307 308 308 309 309 309 309 308 308 307 307 306 305 304 303 302 301 300 300 299 298 297
315 292 286 304 314 317 317 316 318 318 317 318 323 338 347 343 333 318 295 281 271 241 222 290 292 228 213 226 235 237 236 239 245 253 263 275 284 291 296 302 306 309 311 313 313 314 315 316 316 317 317 316 315 315 314 314 312 311 310 309 308 308 307 307 307 308 308 309 309 309 309 309 308 308 307 306 305 304 304 303 302 301 300 299 299 298
316 293 286 302 319 323 317 318 317 305 299 321 334 345 346 341 337 327 294 283 286 269 252 271 279 262 259 258 250 248 252 254 259 267 277 288 295 300 305 308 310 312 313 314 315 316 317 317 317 316 316 315 314 314 313 313 311 310 310 309 309 308 308 308 308 308 309 309 309 309 309 309 308 308 307 306 305 305 304 303 302 302 301 300 299 299
323 308 295 305 321 319 311 316 314 271 277 312 327 337 339 338 333 318 272 297 307 298 285 277 272 277 290 299 290 283 284 284 288 293 298 303 305 307 309 310 312 313 315 316 317 317 317 316 315 314 314 314 314 313 313 312 311 311 310 309 309 309 309 309 309 310 310 310 311 310 310 310 309 309 308 307 306 306 305 304 304 303 302 301 300 299
328 318 308 315 323 317 303 305 292 261 296 313 318 324 330 333 327 308 291 298 301 299 299 302 288 296 320 333 325 318 314 310 308 307 307 308 308 308 309 311 314 316 317 317 317 316 316 315 314 314 315 315 314 314 313 312 312 311 311 311 311 311 311 312 312 312 313 313 312 312 312 311 311 310 309 308 308 307 306 306 305 304 303 303 302 301
331 325 319 324 331 328 312 303 300 301 312 318 319 322 326 326 322 314 303 303 301 293 303 298 249 293 324 326 323 323 320 315 312 310 309 309 309 310 312 315 317 317 317 317 316 315 316 315 316 316 316 316 315 315 315 314 314 314 313 314 314 314 314 315 315 315 315 315 314 314 313 312 312 311 310 310 309 308 308 307 306 306 305 304 304 303
336 334 329 327 325 312 305 304 308 310 315 320 321 321 324 321 319 319 315 313 306 288 292 275 265 292 312 318 320 321 318 314 311 310 310 312 312 313 315 317 318 318 317 317 317 318 318 318 318 317 317 317 317 317 316 315 315 315 315 316 316 316 317 317 317 317 316 316 315 314 314 313 313 312 311 311 310 310 309 308 308 307 307 306 305 304
342 338 336 327 298 292 298 303 308 312 318 322 320 320 322 321 321 323 324 318 306 302 300 289 286 299 310 314 316 316 315 313 311 312 314 315 315 316 318 319 319 319 319 319 320 320 319 318 318 318 318 319 318 317 316 316 316 317 317 318 318 318 318 318 318 317 317 316 316 315 315 314 314 313 312 312 312 311 310 310 309 309 308 307 306 304
342 338 334 326 315 307 307 311 314 322 327 324 320 319 321 322 323 326 331 325 316 317 310 302 304 308 311 314 315 316 315 314 314 318 320 319 319 319 320 320 320 321 321 321 320 320 319 319 319 319 319 319 318 317 318 318 318 319 319 319 319 319 319 319 319 318 318 317 317 316 316 315 315 314 314 313 312 312 311 310 310 309 308 307 305 304
344 339 332 329 326 320 317 318 320 327 329 325 320 318 317 319 323 327 331 321 313 313 306 307 313 313 314 315 316 316 316 317 319 322 321 320 319 319 320 320 322 322 322 321 321 321 320 320 320 319 319 319 319 319 319 319 320 320 320 320 320 320 319 319 319 319 319 318 318 317 316 316 315 315 314 313 313 312 311 310 309 308 307 306 304 304
349 345 339 338 336 328 320 318 321 325 326 320 315 313 316 321 324 326 323 309 304 308 309 313 316 315 315 315 316 316 317 318 320 320 320 319 319 320 322 323 323 323 322 321 321 321 321 320 319 319 320 321 321 320 320 321 321 321 321 321 320 320 320 320 320 319 319 318 318 317 317 316 316 315 314 313 312 311 310 309 308 307 307 306 305 305
357 356 352 348 343 333 321 317 320 323 321 313 309 309 313 318 322 322 318 311 312 315 316 316 316 316 316 316 316 316 317 319 320 321 321 321 321 323 323 323 323 322 321 321 322 321 320 320 320 322 323 323 322 322 322 322 321 321 321 321 321 320 321 321 320 320 319 319 319 318 318 317 316 315 314 313 312 311 310 310 309 309 309 308 308 307
4 3 359 352 347 338 327 322 321 319 312 302 298 303 310 315 319 323 322 320 321 321 319 319 319 319 319 319 319 320 321 322 322 322 322 322 323 324 324 323 323 323 323 323 322 322 322 322 324 324 324 323 323 323 322 322 321 321 321 321 321 322 322 322 321 320 320 320 320 320 319 317 316 315 315 314 313 312 312 312 312 312 312 311 310 310
5 4 358 354 349 341 332 325 319 316 308 295 297 312 318 321 322 324 323 321 321 321 321 321 322 322 323 323 324 323 323 322 322 323 322 323 323 323 324 325 324 324 324 323 323 323 324 325 325 325 324 323 323 323 322 322 322 322 322 322 322 323 323 322 322 322 322 322 321 320 319 318 317 316 316 315 315 314 314 314 314 314 314 313 312 311
5 3 359 355 349 341 335 328 322 317 300 302 319 324 324 325 325 324 322 321 321 323 324 324 324 325 326 325 323 322 321 321 322 323 322 322 323 324 325 326 326 325 324 324 324 325 325 325 325 324 324 323 323 323 322 322 322 322 323 323 322 323 323 322 322 322 323 322 321 320 319 318 318 318 317 316 316 316 316 316 316 316 315 314 313 313
6 3 359 355 348 341 339 337 334 319 299 314 319 323 327 327 325 321 318 319 323 326 327 327 327 327 325 323 321 319 319 321 321 322 322 323 325 326 327 327 326 326 326 325 325 325 324 324 324 324 324 323 323 323 322 322 322 322 322 322 323 323 323 323 323 323 323 322 321 320 320 320 320 319 319 318 318 318 318 317 317 317 316 315 314 314
7 3 359 355 350 343 340 342 332 299 307 314 316 322 327 324 321 321 321 323 326 328 328 329 328 325 322 320 319 319 320 322 322 322 324 326 327 328 328 327 326 327 326 326 325 324 324 325 325 325 324 324 323 323 322 322 322 322 322 323 323 324 323 324 324 324 323 322 322 323 323 323 322 321 321 321 320 320 320 319 319 318 317 316 316 316
4 359 358 358 356 349 340 332 321 310 311 318 323 325 326 323 324 327 325 323 325 327 328 327 325 322 321 320 320 321 322 322 323 325 327 328 328 328 327 327 326 326 325 325 324 324 325 325 325 325 324 324 323 323 323 322 322 322 323 324 324 325 325 325 325 325 324 324 325 326 326 325 324 323 323 323 322 322 322 321 321 320 319 318 317 318
358 356 359 360 358 357 349 336 330 327 319 326 330 328 327 326 326 326 322 320 324 328 326 324 322 321 321 321 321 322 322 322 324 327 328 327 327 327 327 326 326 325 325 325 324 324 325 325 325 325 325 324 324 323 323 323 323 324 325 326 326 326 326 326 326 326 326 327 328 328 327 326 326 325 325 324 323 324 323 323 322 322 321 319 319 320
354 355 357 1 3 3 359 343 317 294 305 321 329 328 326 323 322 322 320 319 325 326 322 322 322 321 321 321 322 323 324 324 325 328 327 326 327 327 327 326 326 326 326 325 325 325 325 325 326 326 325 325 324 324 324 324 325 326 327 328 328 328 328 327 327 327 328 329 330 329 328 328 328 326 325 325 325 325 325 324 324 323 321 320 320 322
356 357 357 2 4 359 353 342 318 299 304 316 324 324 322 321 322 325 320 318 322 322 321 321 321 320 321 321 322 324 325 325 325 326 327 327 327 327 326 326 326 326 326 325 325 325 326 326 326 326 326 325 325 325 326 326 327 328 329 329 329 329 328 328 328 329 331 331 330 330 330 330 328 327 327 327 327 327 327 326 325 323 322 321 322 323
357 357 358 360 357 353 349 339 325 314 311 319 324 325 324 324 325 324 315 315 319 320 319 319 320 319 321 321 322 324 325 324 325 325 326 326 326 326 325 325 326 326 326 326 326 326 326 327 327 327 327 327 326 327 327 327 328 329 330 330 329 329 329 329 330 331 332 331 331 332 332 331 329 329 329 329 328 328 329 327 325 324 324 323 324 326
356 355 354 354 352 349 343 335 328 324 325 327 326 326 327 327 324 319 316 317 317 317 318 319 320 320 321 322 323 324 324 324 324 325 325 326 326 325 326 326 327 326 326 326 326 327 327 328 328 328 328 328 328 328 328 328 329 329 330 330 329 328 329 329 331 332 332 332 332 333 332 332 331 331 331 331 330 330 330 328 327 327 326 325 326 327
354 352 349 348 348 344 339 337 333 323 324 326 327 327 327 325 321 318 318 318 317 318 320 321 322 322 322 322 323 323 324 324 325 325 326 327 327 327 327 328 328 327 327 327 328 328 329 329 329 329 329 329 330 330 329 329 329 330 330 330 329 329 329 330 332 333 333 333 334 334 333 333 333 333 333 333 332 331 332 331 330 330 329 327 328 330
352 348 342 342 344 337 329 329 323 317 321 325 326 326 326 324 322 321 321 321 321 321 322 322 323 323 322 323 324 324 325 326 326 327 328 328 328 328 328 329 329 329 329 330 330 330 330 329 330 331 331 331 331 331 331 330 330 330 331 330 330 330 331 333 334 334 334 334 335 335 335 335 335 335 335 334 333 334 336 334 333 332 331 330 331 331
348 345 339 337 337 330 323 324 324 323 325 327 327 327 326 325 324 323 322 322 323 323 323 323 323 323 324 324 325 326 327 327 327 329 330 330 329 329 329 330 330 330 331 331 331 331 331 331 332 332 333 333 333 332 331 330 330 331 332 332 331 332 334 335 335 336 336 335 336 336 336 337 337 337 337 336 336 338 340 338 336 335 333 333 333 333
345 344 340 337 336 332 328 328 328 327 327 329 328 328 328 327 327 326 325 325 324 324 325 324 324 325 325 326 326 327 328 328 329 331 331 330 330 330 331 331 331 331 332 332 332 332 332 332 333 334 335 335 334 333 332 332 332 333 333 334 334 335 336 336 337 337 337 337 338 338 338 338 338 338 338 338 339 342 343 341 339 337 335 334 334 334
345 343 340 337 335 332 330 330 329 329 330 331 330 330 331 331 330 328 327 326 326 325 325 325 325 326 326 327 327 328 329 330 331 332 332 331 331 332 332 331 332 332 333 333 334 334 334 333 334 335 336 335 334 334 333 334 334 335 335 336 336 337 337 338 338 338 338 338 340 340 339 339 339 340 340 340 341 344 347 345 342 339 336 335 335 336
344 341 338 336 335 333 331 330 330 331 333 332 332 333 334 333 330 329 328 327 326 326 326 326 326 327 327 327 328 329 330 331 332 332 333 332 332 332 332 332 333 334 334 335 335 334 334 335 336 336 336 336 335 335 335 336 337 337 337 338 338 338 339 339 340 339 339 341 342 341 341 341 340 341 343 344 344 346 349 349 346 343 340 338 337 338
343 341 338 336 336 336 333 331 332 333 335 335 334 335 335 333 331 329 328 327 327 327 327 327 327 328 328 328 329 330 331 332 332 333 334 334 333 332 332 333 335 335 335 335 335 335 335 336 337 337 337 337 337 337 337 338 339 340 340 340 340 340 340 340 341 341 341 343 343 343 342 342 342 344 345 346 347 349 352 353 352 348 344 340 339 339
343 341 339 337 337 337 335 334 334 335 336 336 335 335 335 334 332 331 330 329 328 328 328 328 329 329 329 330 331 332 332 333 334 335 335 335 334 333 334 335 335 336 335 335 335 336 337 337 338 338 338 338 339 339 339 340 341 342 342 342 341 341 341 341 342 343 344 345 345 344 344 343 344 346 348 348 348 350 353 357 358 355 348 340 337 338
342 341 339 337 336 336 335 334 335 335 335 336 336 336 336 335 333 332 331 330 330 329 329 330 331 331 332 333 333 333 333 335 336 336 336 336 334 334 334 335 335 335 336 336 336 337 338 339 339 339 340 340 341 341 342 343 343 343 344 343 342 343 342 342 344 345 346 346 347 346 346 346 347 349 350 350 351 350 352 357 3 4 357 345 337 334
Height
3097 3096 3096 3096 3095 3095 3095 3093 3093 3092 3092 3091 3091 3090 3089 3089 3089 3091 3090 3089 3088 3088 3086 3086 3086 3086 3086 3085 3084 3083 3082 3081 3080 3079 3078 3076 3075 3074 3073 3073 3073 3073 3073 3072 3072 3071 3071 3071 3071 3071 3071 3071 3072 3071 3070 3070 3070 3069 3069 3068 3068 3068 3067 3066 3065 3065 3064 3063 3063 3062 3062 3061 3060 3059 3058 3057 3056 3055 3054 3053 3051 3050 3048 3047 3045 3043
3095 3094 3094 3094 3093 3093 3092 3092 3091 3091 3090 3089 3089 3088 3087 3087 3087 3088 3087 3086 3086 3085 3084 3083 3084 3084 3084 3083 3082 3081 3080 3079 3078 3077 3075 3073 3073 3073 3072 3072 3072 3072 3072 3072 3071 3071 3070 3070 3070 3070 3069 3070 3070 3069 3069 3068 3068 3067 3067 3066 3066 3065 3065 3064 3063 3062 3061 3060 3060 3059 3058 3057 3056 3055 3054 3053 3052 3051 3050 3048 3046 3045 3043 3041 3039 3037
3093 3093 3093 3092 3091 3091 3090 3090 3089 3089 3088 3088 3087 3086 3085 3086 3086 3085 3085 3084 3083 3083 3082 3081 3082 3082 3082 3082 3081 3080 3079 3078 3076 3074 3073 3072 3072 3072 3072 3072 3072 3072 3071 3071 3071 3070 3070 3069 3069 3068 3068 3068 3068 3067 3067 3067 3066 3066 3065 3064 3064 3063 3062 3061 3060 3059 3058 3057 3056 3055 3054 3053 3052 3051 3049 3048 3046 3045 3044 3042 3041 3039 3037 3035 3033 3031
3092 3092 3092 3091 3090 3089 3089 3088 3088 3087 3086 3086 3085 3084 3083 3084 3084 3083 3083 3082 3082 3081 3080 3080 3081 3081 3081 3081 3080 3079 3078 3075 3074 3072 3072 3071 3071 3071 3071 3071 3071 3071 3071 3070 3070 3070 3069 3068 3068 3067 3067 3066 3066 3066 3065 3065 3064 3063 3062 3062 3061 3060 3059 3058 3057 3056 3055 3054 3052 3051 3050 3048 3047 3045 3044 3043 3041 3039 3038 3036 3035 3033 3030 3028 3026 3024
3091 3090 3090 3089 3089 3088 3087 3086 3086 3085 3084 3084 3083 3082 3081 3081 3081 3081 3081 3080 3080 3079 3078 3079 3080 3080 3080 3080 3079 3077 3076 3074 3072 3072 3071 3071 3071 3071 3070 3070 3070 3070 3070 3070 3069 3068 3067 3067 3066 3066 3065 3065 3064 3063 3062 3062 3061 3060 3059 3058 3057 3056 3055 3054 3053 3052 3050 3049 3048 3046 3045 3043 3042 3040 3038 3037 3035 3033 3031 3029 3028 3025 3023 3020 3018 3016
3090 3089 3088 3087 3087 3086 3085 3085 3084 3083 3082 3081 3081 3080 3080 3079 3079 3079 3079 3079 3079 3077 3076 3077 3078 3079 3079 3078 3077 3075 3074 3072 3071 3071 3070 3070 3070 3070 3070 3070 3070 3069 3069 3068 3067 3067 3066 3065 3065 3064 3063 3063 3062 3061 3060 3059 3058 3057 3056 3055 3053 3052 3051 3049 3048 3046 3044 3043 3041 3040 3038 3037 3035 3033 3031 3029 3027 3025 3023 3021 3019 3017 3015 3013 3011 3008
3088 3087 3086 3086 3085 3084 3084 3083 3082 3081 3080 3079 3079 3078 3078 3078 3078 3078 3078 3078 3077 3075 3074 3075 3075 3077 3077 3076 3075 3074 3072 3071 3070 3070 3069 3069 3069 3069 3069 3069 3068 3068 3067 3066 3066 3065 3065 3064 3063 3062 3061 3060 3059 3058 3057 3056 3055 3053 3052 3050 3049 3047 3045 3044 3042 3040 3039 3037 3035 3033 3031 3029 3027 3025 3023 3021 3019 3016 3014 3012 3011 3009 3007 3005 3003 3001
3087 3086 3085 3084 3083 3083 3082 3081 3080 3079 3078 3078 3077 3077 3077 3076 3076 3076 3076 3075 3074 3073 3073 3072 3073 3073 3074 3074 3073 3072 3070 3069 3069 3068 3068 3068 3068 3068 3067 3067 3066 3066 3066 3065 3064 3064 3063 3062 3061 3060 3059 3058 3057 3055 3054 3053 3051 3050 3048 3046 3044 3043 3041 3039 3037 3035 3033 3031 3029 3027 3025 3023 3020 3017 3015 3013 3011 3009 3007 3005 3003 3001 2999 2998 2996 2994
3085 3084 3084 3083 3081 3081 3080 3079 3078 3078 3077 3076 3076 3076 3075 3075 3074 3074 3073 3073 3072 3072 3070 3069 3070 3071 3071 3071 3071 3070 3069 3068 3067 3067 3067 3066 3066 3066 3066 3065 3065 3064 3064 3063 3063 3062 3061 3060 3059 3058 3057 3056 3054 3053 3051 3050 3048 3046 3045 3042 3040 3038 3037 3034 3032 3030 3028 3025 3023 3020 3018 3015 3013 3010 3008 3006 3003 3002 3000 2998 2996 2994 2992 2990 2989 2987
3084 3083 3082 3081 3080 3079 3078 3077 3077 3077 3076 3075 3075 3075 3074 3073 3072 3071 3071 3070 3070 3069 3066 3065 3066 3067 3069 3069 3069 3069 3067 3066 3065 3065 3065 3064 3064 3064 3064 3064 3063 3063 3062 3061 3061 3060 3059 3058 3057 3056 3055 3053 3052 3050 3048 3046 3044 3042 3040 3038 3036 3033 3031 3029 3026 3024 3022 3019 3016 3014 3011 3009 3006 3004 3002 3000 2998 2995 2993 2991 2989 2987 2985 2984 2982 2980
3083 3082 3081 3080 3079 3078 3077 3077 3076 3076 3075 3075 3074 3073 3072 3071 3070 3069 3068 3067 3068 3067 3062 3062 3063 3064 3066 3067 3067 3067 3066 3064 3064 3064 3063 3063 3063 3062 3062 3062 3061 3061 3060 3059 3059 3058 3057 3056 3055 3054 3052 3051 3049 3047 3045 3042 3040 3038 3036 3033 3031 3028 3026 3023 3021 3019 3016 3013 3011 3008 3006 3003 3000 2997 2994 2992 2990 2988 2985 2983 2981 2979 2977 2976 2974 2972
3082 3081 3080 3079 3078 3077 3077 3076 3076 3075 3074 3074 3073 3072 3071 3069 3067 3067 3066 3066 3067 3064 3061 3061 3062 3062 3064 3064 3065 3066 3064 3063 3063 3063 3063 3062 3061 3061 3061 3060 3060 3059 3058 3057 3056 3055 3055 3054 3052 3051 3049 3047 3045 3043 3041 3038 3035 3033 3031 3028 3026 3023 3021 3019 3016 3013 3010 3007 3005 3002 2999 2996 2993 2990 2987 2984 2982 2979 2977 2975 2972 2970 2968 2967 2965 2963
3081 3080 3079 3078 3078 3077 3076 3076 3075 3074 3073 3073 3072 3071 3070 3069 3068 3066 3065 3066 3065 3062 3061 3061 3062 3062 3062 3062 3063 3063 3062 3061 3062 3061 3061 3061 3060 3059 3059 3059 3058 3057 3056 3055 3054 3052 3051 3050 3048 3046 3045 3042 3040 3038 3035 3033 3030 3028 3026 3023 3021 3018 3015 3012 3009 3006 3003 3000 2997 2994 2992 2989 2986 2984 2981 2978 2975 2972 2969 2966 2964 2962 2959 2957 2955 2953
3081 3080 3079 3078 3077 3077 3076 3075 3074 3073 3073 3072 3071 3070 3070 3070 3070 3067 3065 3065 3063 3061 3061 3062 3061 3061 3062 3061 3061 3061 3060 3060 3060 3060 3060 3060 3059 3058 3057 3057 3056 3055 3054 3052 3051 3050 3048 3046 3044 3042 3040 3037 3035 3032 3030 3028 3025 3023 3020 3017 3015 3011 3008 3005 3002 2999 2997 2994 2991 2989 2986 2983 2980 2977 2975 2971 2968 2966 2962 2959 2956 2954 2951 2948 2946 2944
3081 3080 3078 3078 3077 3076 3075 3074 3074 3073 3072 3070 3069 3069 3069 3069 3069 3067 3064 3063 3061 3061 3061 3061 3060 3060 3060 3060 3059 3059 3059 3059 3058 3059 3059 3058 3058 3056 3055 3055 3054 3053 3052 3050 3048 3047 3045 3043 3040 3038 3036 3033 3030 3028 3025 3022 3019 3016 3013 3010 3007 3004 3001 2999 2996 2993 2991 2988 2985 2982 2979 2976 2973 2970 2967 2964 2961 2958 2955 2952 2949 2946 2943 2940 2937 2935
3082 3080 3079 3078 3077 3075 3074 3074 3073 3072 3071 3070 3069 3069 3068 3068 3067 3066 3064 3063 3062 3062 3061 3059 3060 3059 3059 3059 3059 3059 3059 3058 3058 3057 3057 3057 3056 3055 3054 3052 3052 3050 3049 3047 3045 3044 3041 3039 3037 3034 3031 3028 3026 3023 3019 3016 3013 3010 3007 3004 3001 2998 2995 2992 2990 2987 2984 2982 2979 2976 2973 2970 2967 2964 2961 2958 2955 2951 2948 2945 2941 2938 2935 2932 2928 2926
3082 3080 3079 3077 3076 3075 3074 3073 3073 3072 3070 3070 3069 3068 3067 3067 3066 3065 3063 3062 3063 3062 3059 3058 3059 3059 3060 3059 3058 3058 3058 3057 3057 3056 3056 3055 3055 3054 3052 3051 3049 3048 3046 3044 3042 3040 3038 3035 3032 3030 3027 3023 3020 3017 3013 3010 3007 3004 3001 2998 2995 2993 2990 2987 2985 2982 2979 2977 2974 2971 2968 2964 2961 2957 2954 2951 2947 2943 2940 2937 2933 2930 2928 2924 2920 2917
3082 3079 3077 3077 3075 3074 3074 3073 3072 3071 3070 3069 3068 3068 3067 3066 3065 3065 3064 3062 3063 3062 3059 3057 3058 3058 3059 3058 3057 3057 3057 3056 3056 3055 3054 3054 3053 3052 3050 3049 3047 3045 3043 3041 3038 3036 3033 3030 3027 3024 3021 3017 3014 3010 3007 3005 3002 2999 2996 2993 2990 2988 2985 2982 2979 2976 2973 2970 2967 2964 2961 2957 2953 2949 2946 2942 2939 2935 2931 2928 2925 2921 2919 2916 2912 2908
3082 3078 3076 3075 3075 3074 3073 3073 3071 3071 3070 3069 3068 3067 3066 3066 3065 3065 3064 3063 3063 3062 3059 3057 3057 3057 3057 3056 3056 3055 3055 3055 3055 3054 3053 3052 3051 3050 3048 3046 3044 3042 3040 3037 3034 3031 3028 3025 3022 3019 3016 3013 3009 3006 3003 3000 2997 2994 2991 2988 2985 2982 2979 2976 2973 2970 2967 2963 2960 2956 2953 2949 2945 2941 2938 2934 2931 2927 2923 2919 2916 2913 2909 2907 2903 2899
3082 3080 3076 3074 3075 3074 3073 3072 3071 3070 3069 3068 3067 3067 3066 3066 3065 3065 3065 3063 3063 3062 3060 3057 3056 3056 3055 3055 3055 3055 3054 3054 3054 3053 3052 3051 3049 3048 3046 3044 3042 3039 3037 3034 3030 3027 3024 3021 3018 3015 3011 3008 3005 3002 2999 2996 2992 2989 2986 2983 2980 2977 2974 2970 2967 2964 2960 2957 2952 2949 2945 2941 2937 2933 2929 2926 2922 2918 2914 2910 2906 2903 2899 2896 2893 2889
3081 3080 3077 3074 3074 3074 3072 3071 3070 3069 3068 3068 3067 3067 3066 3066 3066 3065 3064 3063 3062 3062 3061 3059 3055 3053 3054 3054 3054 3054 3054 3053 3053 3052 3051 3050 3048 3046 3044 3042 3039 3036 3033 3030 3026 3023 3020 3017 3013 3010 3007 3004 3001 2998 2995 2991 2988 2985 2981 2978 2975 2971 2967 2964 2961 2957 2953 2950 2946 2941 2937 2933 2929 2925 2921 2917 2913 2909 2905 2901 2897 2893 2890 2887 2883 2879
3080 3080 3076 3074 3073 3073 3071 3070 3069 3068 3068 3068 3067 3067 3067 3066 3065 3065 3063 3062 3062 3061 3061 3060 3055 3052 3053 3054 3053 3053 3053 3053 3052 3051 3050 3049 3046 3044 3041 3038 3036 3033 3030 3026 3022 3019 3015 3012 3009 3006 3002 2999 2996 2993 2990 2986 2983 2979 2975 2972 2968 2964 2961 2957 2954 2950 2946 2942 2938 2934 2929 2925 2921 2917 2912 2908 2905 2900 2896 2892 2888 2884 2880 2877 2874 2870
3080 3078 3076 3074 3073 3072 3071 3070 3069 3068 3068 3068 3068 3067 3067 3066 3065 3065 3064 3062 3061 3060 3060 3059 3056 3052 3053 3054 3053 3053 3053 3052 3051 3050 3049 3046 3043 3041 3038 3035 3032 3029 3026 3022 3018 3015 3012 3008 3005 3002 2999 2995 2992 2988 2985 2981 2977 2973 2969 2966 2962 2958 2954 2950 2946 2943 2938 2934 2930 2925 2921 2916 2912 2907 2903 2898 2894 2890 2886 2882 2878 2874 2870 2867 2864 2860
3079 3078 3075 3074 3073 3071 3070 3069 3069 3069 3069 3068 3067 3067 3066 3065 3064 3064 3064 3062 3061 3060 3059 3059 3056 3053 3053 3053 3053 3053 3052 3051 3050 3048 3046 3044 3041 3038 3035 3032 3029 3026 3022 3019 3015 3012 3009 3005 3001 2997 2994 2990 2986 2982 2979 2974 2970 2967 2963 2959 2955 2951 2947 2942 2938 2934 2929 2925 2921 2916 2911 2906 2902 2897 2893 2888 2884 2880 2876 2872 2868 2864 2860 2856 2853 2849
3079 3078 3076 3074 3072 3071 3070 3070 3069 3069 3069 3068 3067 3066 3065 3064 3064 3063 3063 3062 3061 3059 3059 3059 3057 3054 3053 3053 3052 3051 3050 3049 3047 3045 3043 3041 3037 3034 3031 3029 3026 3022 3019 3015 3012 3008 3004 3000 2996 2992 2987 2983 2979 2975 2971 2967 2963 2959 2955 2950 2946 2942 2938 2933 2928 2924 2919 2914 2910 2906 2901 2896 2892 2887 2883 2878 2874 2870 2866 2862 2858 2854 2849 2845 2842 2839
3079 3078 3077 3076 3075 3074 3072 3072 3071 3069 3068 3067 3066 3065 3064 3064 3063 3063 3062 3061 3060 3059 3059 3058 3056 3053 3053 3052 3051 3050 3048 3046 3045 3043 3041 3038 3034 3031 3028 3025 3022 3018 3015 3011 3007 3002 2998 2994 2990 2986 2981 2977 2973 2968 2964 2960 2956 2952 2948 2944 2939 2934 2930 2925 2920 2915 2910 2906 2901 2897 2892 2887 2883 2878 2874 2869 2865 2860 2856 2852 2848 2844 2840 2835 2832 2829
3079 3078 3077 3076 3076 3075 3074 3073 3072 3070 3068 3067 3066 3065 3064 3063 3062 3062 3061 3060 3060 3059 3057 3056 3055 3053 3052 3051 3049 3048 3046 3044 3041 3039 3037 3034 3031 3027 3024 3021 3017 3013 3009 3005 3001 2996 2992 2988 2984 2980 2976 2971 2967 2963 2958 2954 2950 2945 2941 2937 2931 2926 2922 2917 2912 2907 2903 2898 2893 2888 2884 2879 2874 2870 2865 2860 2856 2851 2847 2843 2838 2834 2830 2826 2822 2818
3080 3078 3077 3077 3076 3075 3073 3072 3071 3070 3068 3067 3065 3064 3063 3062 3062 3061 3061 3060 3059 3058 3056 3055 3054 3053 3051 3049 3047 3045 3043 3040 3037 3035 3032 3029 3026 3022 3019 3016 3012 3008 3004 2999 2995 2991 2987 2983 2978 2974 2970 2966 2962 2957 2953 2948 2944 2939 2934 2929 2925 2919 2914 2909 2905 2900 2895 2890 2885 2880 2875 2871 2866 2861 2857 2852 2848 2843 2839 2834 2830 2826 2822 2818 2813 2809
3080 3078 3077 3076 3075 3074 3073 3072 3070 3069 3068 3066 3065 3064 3063 3062 3061 3060 3060 3059 3059 3058 3056 3054 3053 3051 3049 3047 3044 3042 3039 3036 3034 3032 3029 3025 3022 3019 3015 3011 3007 3003 2998 2994 2990 2986 2981 2977 2973 2969 2965 2961 2956 2952 2947 2942 2938 2933 2928 2923 2918 2913 2908 2903 2898 2893 2888 2883 2878 2873 2868 2864 2859 2854 2850 2845 2840 2836 2831 2827 2823 2818 2814 2810 2805 2801
3080 3078 3077 3076 3074 3073 3072 3071 3070 3068 3067 3065 3064 3063 3062 3061 3060 3060 3059 3058 3058 3057 3055 3053 3052 3050 3047 3044 3042 3039 3036 3034 3032 3029 3026 3022 3018 3014 3010 3006 3002 2998 2994 2989 2985 2981 2977 2973 2969 2965 2961 2956 2951 2945 2941 2936 2931 2926 2922 2917 2912 2907 2902 2896 2892 2887 2881 2877 2872 2867 2862 2857 2853 2848 2843 2838 2834 2829 2824 2820 2815 2811 2807 2802 2798 2794
3080 3079 3077 3076 3074 3073 3072 3071 3069 3068 3066 3064 3063 3062 3062 3061 3060 3059 3058 3057 3056 3055 3054 3052 3049 3047 3045 3042 3039 3037 3035 3032 3029 3025 3022 3017 3013 3009 3005 3002 2998 2994 2990 2986 2981 2977 2973 2968 2964 2960 2955 2949 2944 2939 2934 2930 2925 2920 2915 2911 2906 2901 2896 2890 2885 2881 2876 2870 2866 2861 2856 2851 2846 2841 2836 2831 2826 2821 2817 2812 2807 2803 2798 2794 2789 2785
3080 3079 3078 3076 3074 3073 3071 3070 3068 3067 3065 3063 3063 3062 3061 3061 3059 3058 3057 3056 3054 3053 3051 3049 3046 3043 3041 3038 3036 3033 3031 3027 3023 3020 3016 3012 3009 3005 3001 2998 2994 2989 2985 2981 2976 2972 2967 2962 2957 2953 2948 2943 2938 2933 2929 2924 2919 2914 2909 2905 2900 2894 2890 2885 2879 2874 2869 2864 2859 2854 2849 2844 2839 2834 2829 2824 2819 2814 2809 2804 2799 2794 2790 2785 2781 2777
3081 3079 3078 3076 3074 3073 3071 3070 3068 3066 3064 3062 3062 3062 3061 3059 3058 3057 3056 3055 3053 3051 3049 3046 3043 3040 3037 3035 3032 3029 3026 3022 3019 3015 3012 3008 3005 3001 2998 2994 2989 2985 2980 2976 2971 2966 2961 2957 2952 2948 2943 2938 2933 2928 2923 2918 2914 2909 2904 2899 2893 2888 2883 2879 2873 2868 2863 2859 2853 2848 2842 2837 2832 2827 2823 2817 2812 2807 2802 2797 2792 2787 2782 2778 2774 2770
3081 3080 3078 3076 3075 3073 3071 3069 3067 3064 3063 3062 3062 3061 3060 3058 3057 3055 3053 3053 3051 3050 3047 3044 3041 3038 3035 3033 3029 3026 3022 3019 3016 3012 3008 3005 3001 2998 2994 2990 2985 2980 2976 2971 2966 2961 2957 2953 2949 2944 2939 2934 2929 2924 2919 2914 2909 2904 2899 2894 2889 2884 2879 2874 2869 2863 2859 2854 2848 2842 2837 2832 2827 2822 2817 2811 2806 2801 2796 2791 2786 2782 2777 2772 2768 2764
3082 3080 3078 3077 3075 3073 3071 3069 3066 3063 3063 3063 3062 3060 3059 3058 3056 3054 3052 3051 3049 3046 3044 3041 3039 3036 3034 3031 3027 3023 3020 3016 3013 3009 3006 3002 2998 2993 2989 2985 2980 2976 2971 2966 2961 2957 2953 2949 2945 2940 2934 2929 2924 2919 2915 2910 2904 2900 2895 2890 2885 2880 2874 2869 2864 2859 2854 2849 2844 2838 2832 2826 2821 2816 2811 2805 2800 2795 2790 2785 2781 2776 2771 2766 2762 2758
3082 3081 3079 3077 3075 3072 3071 3070 3067 3064 3063 3062 3061 3060 3059 3057 3056 3053 3049 3047 3045 3043 3040 3038 3036 3034 3031 3027 3024 3020 3017 3013 3010 3006 3002 2997 2993 2989 2985 2980 2976 2971 2966 2962 2957 2952 2948 2944 2939 2934 2929 2924 2919 2914 2909 2905 2900 2895 2891 2886 2880 2875 2870 2865 2860 2855 2850 2844 2839 2833 2827 2821 2815 2810 2805 2799 2794 2789 2784 2779 2775 2770 2765 2760 2756 2752
3082 3081 3079 3077 3075 3073 3071 3069 3067 3064 3063 3062 3061 3060 3059 3057 3055 3052 3046 3043 3042 3041 3038 3036 3033 3030 3027 3024 3020 3016 3013 3010 3006 3002 2998 2994 2989 2985 2981 2976 2972 2968 2963 2959 2954 2949 2944 2940 2935 2930 2925 2920 2915 2909 2904 2900 2895 2890 2886 2881 2876 2871 2866 2861 2856 2850 2845 2839 2833 2828 2822 2815 2809 2804 2799 2793 2788 2783 2778 2773 2768 2764 2759 2754 2749 2746
3083 3081 3080 3078 3076 3075 3072 3069 3066 3064 3062 3062 3061 3060 3058 3056 3055 3052 3046 3042 3040 3039 3036 3034 3031 3027 3023 3020 3016 3012 3009 3005 3002 2998 2994 2990 2986 2982 2977 2973 2969 2964 2960 2955 2950 2945 2940 2936 2931 2926 2921 2915 2910 2905 2899 2895 2890 2885 2880 2875 2870 2865 2860 2856 2851 2845 2840 2834 2829 2823 2817 2811 2805 2799 2793 2788 2783 2778 2773 2768 2763 2758 2753 2748 2743 2740
3083 3082 3080 3078 3076 3074 3072 3071 3069 3066 3063 3062 3061 3060 3059 3056 3054 3051 3046 3040 3039 3037 3034 3031 3028 3024 3020 3016 3012 3009 3004 3000 2997 2995 2991 2986 2982 2978 2973 2968 2964 2960 2955 2950 2945 2941 2936 2932 2927 2923 2917 2911 2905 2900 2894 2889 2884 2880 2875 2870 2865 2860 2855 2850 2845 2840 2835 2829 2824 2818 2812 2806 2800 2794 2789 2784 2779 2774 2768 2763 2758 2753 2747 2743 2738 2735
3083 3081 3079 3077 3075 3074 3072 3071 3069 3067 3064 3063 3062 3061 3059 3056 3053 3050 3045 3040 3037 3035 3032 3028 3025 3021 3017 3014 3010 3006 3002 2997 2993 2991 2987 2983 2979 2975 2970 2965 2960 2956 2951 2947 2942 2937 2932 2927 2922 2918 2913 2907 2901 2895 2889 2884 2879 2875 2870 2865 2860 2855 2850 2845 2840 2835 2830 2824 2819 2814 2808 2802 2796 2790 2785 2779 2774 2769 2764 2758 2753 2748 2743 2738 2734 2730
3082 3080 3078 3076 3075 3074 3072 3070 3068 3066 3065 3063 3062 3060 3057 3054 3051 3049 3045 3040 3036 3033 3030 3026 3023 3019 3015 3011 3007 3004 3001 2996 2991 2987 2984 2980 2976 2972 2968 2963 2958 2953 2948 2943 2938 2933 2928 2923 2918 2913 2907 2902 2897 2892 2886 2881 2876 2871 2866 2861 2856 2851 2846 2840 2835 2830 2825 2820 2815 2810 2804 2798 2792 2786 2781 2775 2770 2765 2760 2755 2749 2744 2738 2733 2730 2726
3082 3080 3078 3077 3075 3073 3072 3069 3066 3064 3063 3062 3060 3058 3055 3052 3049 3046 3043 3039 3034 3031 3028 3024 3021 3017 3013 3009 3005 3001 2998 2994 2990 2985 2981 2977 2973 2968 2964 2959 2955 2950 2945 2940 2935 2930 2924 2919 2914 2909 2904 2898 2893 2888 2883 2878 2873 2868 2864 2859 2853 2848 2843 2837 2832 2827 2822 2816 2811 2806 2800 2795 2789 2782 2777 2772 2766 2761 2757 2751 2746 2740 2735 2730 2726 2722
3084 3081 3079 3077 3075 3073 3071 3069 3066 3063 3061 3060 3058 3055 3052 3050 3047 3043 3039 3036 3032 3028 3025 3021 3018 3014 3010 3006 3003 2999 2995 2991 2986 2982 2978 2973 2969 2964 2959 2955 2950 2946 2941 2936 2931 2926 2920 2915 2910 2905 2900 2894 2889 2884 2879 2874 2870 2865 2860 2855 2850 2845 2839 2834 2829 2824 2818 2813 2808 2802 2797 2792 2786 2780 2774 2769 2763 2758 2753 2747 2741 2737 2732 2727 2722 2718
3085 3083 3081 3078 3077 3074 3072 3070 3067 3064 3061 3059 3056 3053 3050 3047 3044 3040 3036 3032 3029 3025 3021 3018 3014 3010 3006 3002 2999 2995 2991 2987 2982 2978 2974 2969 2964 2960 2955 2951 2946 2941 2937 2932 2926 2921 2916 2911 2906 2901 2896 2891 2885 2880 2875 2870 2865 2861 2856 2851 2846 2841 2836 2830 2825 2820 2815 2810 2804 2799 2794 2788 2783 2777 2771 2766 2761 2756 2750 2743 2738 2733 2729 2724 2719 2715
3085 3083 3081 3079 3077 3075 3072 3070 3067 3063 3060 3057 3054 3051 3048 3044 3041 3037 3033 3029 3025 3022 3018 3014 3010 3007 3003 2999 2995 2991 2987 2983 2978 2974 2970 2965 2960 2955 2951 2947 2942 2937 2932 2927 2923 2917 2912 2907 2902 2897 2893 2887 2882 2877 2872 2866 2861 2857 2852 2847 2842 2836 2832 2827 2822 2817 2812 2807 2801 2796 2790 2785 2780 2775 2769 2764 2758 2753 2747 2740 2734 2729 2725 2721 2717 2713
3084 3082 3080 3077 3075 3073 3070 3068 3065 3062 3059 3055 3052 3049 3045 3042 3038 3034 3030 3026 3022 3018 3015 3011 3007 3003 2999 2995 2991 2987 2983 2979 2975 2970 2966 2961 2956 2952 2947 2943 2938 2934 2929 2924 2919 2914 2908 2903 2898 2893 2889 2884 2879 2874 2869 2863 2858 2852 2848 2843 2838 2833 2828 2823 2818 2813 2809 2803 2798 2793 2787 2782 2778 2773 2767 2762 2757 2751 2745 2738 2731 2726 2722 2718 2715 2711
3083 3081 3078 3076 3074 3071 3068 3066 3063 3060 3057 3053 3050 3046 3042 3039 3035 3031 3027 3023 3019 3016 3012 3008 3004 3000 2996 2992 2988 2984 2980 2976 2971 2967 2963 2957 2952 2948 2943 2939 2935 2930 2925 2920 2915 2909 2904 2900 2895 2890 2885 2881 2876 2870 2865 2860 2855 2850 2845 2840 2835 2830 2825 2820 2815 2810 2806 2801 2795 2790 2785 2780 2775 2770 2765 2760 2755 2750 2745 2738 2731 2724 2719 2715 2712 2709
3082 3079 3077 3075 3072 3069 3066 3063 3061 3058 3055 3051 3047 3044 3040 3036 3032 3028 3025 3021 3017 3013 3009 3006 3002 2998 2993 2989 2985 2981 2977 2973 2969 2964 2960 2955 2950 2945 2941 2936 2931 2927 2921 2916 2911 2906 2901 2896 2892 2887 2882 2878 2873 2867 2862 2857 2852 2847 2842 2837 2832 2827 2823 2818 2813 2808 2803 2798 2793 2787 2782 2778 2773 2768 2763 2758 2752 2747 2742 2737 2731 2724 2718 2713 2709 2705
3081 3078 3075 3073 3070 3067 3064 3061 3057 3054 3052 3048 3044 3041 3038 3034 3030 3026 3022 3018 3014 3011 3007 3004 3000 2996 2991 2987 2983 2978 2974 2970 2966 2962 2957 2952 2947 2942 2937 2932 2928 2923 2918 2913 2908 2903 2898 2894 2889 2884 2880 2875 2870 2865 2860 2855 2850 2845 2840 2835 2830 2825 2820 2816 2811 2806 2801 2796 2791 2786 2781 2776 2771 2766 2761 2756 2751 2746 2740 2734 2728 2722 2717 2712 2708 2704
3079 3077 3074 3070 3067 3065 3062 3058 3054 3050 3047 3044 3041 3037 3034 3031 3026 3022 3019 3015 3011 3007 3004 3000 2997 2993 2989 2984 2979 2975 2971 2967 2963 2958 2954 2949 2944 2939 2934 2929 2925 2920 2915 2911 2906 2901 2896 2891 2887 2882 2877 2873 2867 2862 2857 2852 2847 2843 2838 2832 2827 2822 2817 2813 2809 2804 2799 2794 2789 2784 2779 2774 2770 2765 2759 2754 2749 2745 2741 2736 2729 2722 2716 2711 2708 2705
3078 3075 3072 3069 3066 3063 3060 3057 3053 3049 3045 3042 3038 3034 3031 3027 3023 3019 3015 3011 3008 3004 3000 2997 2993 2989 2985 2981 2976 2971 2967 2964 2959 2955 2951 2946 2941 2936 2931 2927 2922 2918 2913 2908 2903 2898 2894 2889 2885 2880 2875 2870 2865 2860 2855 2850 2845 2841 2836 2831 2826 2821 2816 2811 2806 2801 2797 2792 2787 2782 2777 2772 2768 2763 2758 2753 2748 2743 2740 2737 2733 2727 2719 2712 2708 2705